Regional Weather Roundup
Issued by NWS Goodland, KS

Home | Current Version | Previous Version | Graphics & Text | Print | Product List | Glossary On
Versions: 1 2 3 4 5 6 7 8 9 10 11 12 13 14 15 16 17 18 19 20 21 22 23 24 25 26 27 28 29 30 31 32 33 34 35 36 37 38 39 40 41 42 43 44 45 46 47 48 49 50
000
ASUS43 KGLD 242108
RWRGLD

GOODLAND FORECAST AREA HOURLY WEATHER ROUNDUP
NATIONAL WEATHER SERVICE GOODLAND KS
200 PM MST SAT JAN 24 2015

...OFFICIAL OBSERVATIONS...

CITY           SKY/WX    TMP DP  RH WIND       PRES   REMARKS
GOODLAND KS    PTSUNNY   56  25  30 NW18      29.91F
HILL CITY KS   CLOUDY    62  19  19 W23G31    29.83F
IMPERIAL NEB   LGT RAIN  46  29  51 NW16G30   29.88S
MCCOOK NEB     PTSUNNY   55  23  28 W17       29.84F
AKRON CO       CLOUDY    44  25  47 NW12      29.94S
BURLINGTON CO  CLOUDY    55  24  30 NW18      29.92F
LIMON CO       CLOUDY    53  15  22 NW12      29.96F
$$

...UNOFFICIAL OBSERVATIONS...

CITY           SKY/WX    TMP DP  RH WIND       PRES   REMARKS
COLBY KS       SUNNY     57  28  33 W17       29.89R
GOVE KS          N/A     62  32  32 MISG        N/A
NORTON KS      SUNNY     55  19  24 W22G28    29.82S
SHARON SPRINGS   N/A     58  31  36 W12G20      N/A
KIT CARSON CO    N/A     59  22  24 MISG        N/A
YUMA CO          N/A     45  26  46 W12         N/A
$$


USA.gov is the U.S. government's official web portal to all federal, state and local government web resources and services.